"Pseudo-MPEC" for CALVMY2

Created 2024 May 17 0:22:07 UT using Find_Orb

Click here for an explanation of pseudo-MPECs

 
 Astrometry: 
     CALVMY2*1C2024 05 15.35361916 11 12.224+16 06 42.91   ~5F97 21.96GVNEOCPG96
     CALVMY2 1C2024 05 15.35869016 11 11.742+16 06 40.64   ~5F97 22.00GVNEOCPG96
     CALVMY2 1C2024 05 15.36376216 11 11.242+16 06 38.63   ~5F97 21.68GVNEOCPG96
     CALVMY2 KC2024 05 15.43452116 11 04.621+16 06 01.58   ~5FB7 21.78GVNEOCPV06
     CALVMY2 KC2024 05 15.43849216 11 04.247+16 05 59.35   ~5FB7 21.96GVNEOCPV06
     CALVMY2 KC2024 05 15.44249316 11 03.876+16 05 57.34   ~5FB7 21.79GVNEOCPV06
     CALVMY2 KC2024 05 15.44649616 11 03.498+16 05 55.32   ~5FB7 21.43GVNEOCPV06
     CALVMY2 KC2024 05 16g(Sm;j5Y`QMI1_-d=Z'#-0*Z%%t0`AstrometrycdNkqua;e@H%'H21
     CALVMY2 KC2024 05 16a2k$lM'S7f3kbLRKkZqredacted;b/2$N,ZjT9KclickpKqtrDVKH21
     CALVMY2 KC2024 05 165B9R3!X?hereISwf=forcDkp$\$qatBexplanationXInV%@lGYDH21

Station data:
(G96) Mt. Lemmon Survey  (N32.442729 W110.788720)  US/Arizona.  Observer E.
   J. Christensen. 1.5-m reflector + 10K CCD.
(H21) Astronomical Research Observatory, Westfield  (N39.483054 W87.968270)
   US/Illinois.  Observer R. Holmes. Measurers S. Foglia, L. Buzzi, T.
   Linder, R. Holmes. 0.76-m f/3.0 astrograph + CCD0.81-m f/4.0 astrograph +
   CCD0.61-m f/4.5 astrograph + CCD0.40-m f/5.32 astrograph + CCD.
(V06) Catalina Sky Survey-Kuiper  (N32.416871 W110.732550)  US/Arizona.
   Observers T. A. Pruyne, B. M. Africano, E. J. Christensen, G. A. Farneth,
   D. C. Fuls, A. R. Gibbs, A. D. Grauer, H. Gröller, J. A. Johnson, R. A.
   Kowalski, S. M. Larson, G. J. Leonard, D. Rankin, R. L. Seaman, F. C.
   Shelly, K. W. Wierzchoś. 1.55-m reflector + CCD.

Orbital elements:  CALVMY2
   Perihelion 2024 Jan 10.11421 +/- 221 TT =  2:44:28 (JD 2460319.61421)
Epoch 2024 May 16.0 TT = JDT 2460446.5   Earth MOID: 0.0485   Ju: 0.8999
M  29.76582582 +/- 70               (J2000 ecliptic)             AutoNEOCP
n   0.23458755 +/- 0.0684           Peri.    9.60322 +/- 70
a   2.60375074 +/- 0.506            Node   127.12159 +/- 13
e   0.6048725 +/- 0.192             Incl.   17.88729 +/- 5.9
P   4.20                   H 20.08  G  0.15   U 11.0  SR
q 1.02881348 +/- 0.281    Q 4.17868801 +/- 0.87
From 10 observations 2024 May 15-16 (21.4 hr); mean residual 0".28
Residuals in arcseconds: 
240515 G96  .03-  .76-    240515 V06  .11+  .15+    240516 H21  .19+  .06-    
240515 G96  .07-  .40-    240515 V06  .16+  .25+    240516 H21  .34-  .20-    
240515 G96  .38-  .23+    240515 V06  .11+  .35+    
240515 V06  .14+  .28+    240516 H21  .11+  .16+    

Ephemerides (geocentric):
Date (UTC) HH   RA             Dec           delta  r     elong  mag " sig PA
---- --------  ------------   ------------  ------ ------ -----  --- --------
2024 05 17 00  16 08 44.081   +15 51 59.44  .89914 1.8167 143.9 22.1 11.3 116
2024 05 17 01  16 08 40.364   +15 51 36.09  .89944 1.8171 143.9 22.1 12.2 116
2024 05 17 02  16 08 36.649   +15 51 12.70  .89973 1.8174 143.9 22.1 13.2 117
2024 05 17 03  16 08 32.936   +15 50 49.27  .90002 1.8177 143.9 22.1 14.2 117
2024 05 17 04  16 08 29.225   +15 50 25.80  .90031 1.8181 143.9 22.1 15.2 117
2024 05 17 05  16 08 25.516   +15 50 02.28  .90061 1.8184 143.9 22.1 16.2 117
2024 05 17 06  16 08 21.808   +15 49 38.71  .90090 1.8187 144.0 22.1 17.3 118
2024 05 17 07  16 08 18.102   +15 49 15.11  .90119 1.8191 144.0 22.1 18.4 118
2024 05 17 08  16 08 14.399   +15 48 51.46  .90149 1.8194 144.0 22.1 19.6 118
2024 05 17 09  16 08 10.697   +15 48 27.77  .90178 1.8197 144.0 22.1 20.7 118
2024 05 17 10  16 08 06.996   +15 48 04.03  .90208 1.8201 144.0 22.1 21.9 118
2024 05 17 11  16 08 03.298   +15 47 40.25  .90237 1.8204 144.0 22.1 23.2 119
2024 05 17 12  16 07 59.602   +15 47 16.43  .90267 1.8207 144.0 22.1 24.5 119
2024 05 17 13  16 07 55.907   +15 46 52.57  .90296 1.8211 144.0 22.1 25.8 119
2024 05 17 14  16 07 52.214   +15 46 28.66  .90326 1.8214 144.0 22.1 27.1 119
2024 05 17 15  16 07 48.524   +15 46 04.71  .90355 1.8217 144.0 22.1 28.4 119
2024 05 17 16  16 07 44.835   +15 45 40.72  .90385 1.8221 144.0 22.1 29.8 119
2024 05 17 17  16 07 41.148   +15 45 16.69  .90415 1.8224 144.1 22.1 31.3 119
2024 05 17 18  16 07 37.463   +15 44 52.61  .90445 1.8227 144.1 22.1 32.7 119
2024 05 17 19  16 07 33.780   +15 44 28.49  .90474 1.8231 144.1 22.1 34.2 120
2024 05 17 20  16 07 30.099   +15 44 04.32  .90504 1.8234 144.1 22.1 35.7 120
2024 05 17 21  16 07 26.419   +15 43 40.12  .90534 1.8237 144.1 22.1 37.3 120
2024 05 17 22  16 07 22.742   +15 43 15.87  .90564 1.8241 144.1 22.1 38.9 120
2024 05 17 23  16 07 19.067   +15 42 51.58  .90594 1.8244 144.1 22.1 40.5 120
2024 05 18 00  16 07 15.393   +15 42 27.25  .90624 1.8247 144.1 22.1 42.1 120
2024 05 18 01  16 07 11.722   +15 42 02.87  .90654 1.8251 144.1 22.1 43.8 120
2024 05 18 02  16 07 08.053   +15 41 38.46  .90684 1.8254 144.1 22.1 45.5 120
2024 05 18 03  16 07 04.385   +15 41 14.00  .90714 1.8257 144.1 22.1 47.3 120
2024 05 18 04  16 07 00.720   +15 40 49.50  .90744 1.8261 144.1 22.1 49.0 120
2024 05 18 05  16 06 57.056   +15 40 24.95  .90774 1.8264 144.2 22.1 50.9 120
2024 05 18 06  16 06 53.395   +15 40 00.37  .90804 1.8267 144.2 22.1 52.7 121
2024 05 18 07  16 06 49.735   +15 39 35.74  .90834 1.8271 144.2 22.1 54.6 121
2024 05 18 08  16 06 46.078   +15 39 11.07  .90864 1.8274 144.2 22.1 56.5 121
2024 05 18 09  16 06 42.422   +15 38 46.36  .90894 1.8277 144.2 22.1 58.4 121
2024 05 18 10  16 06 38.769   +15 38 21.61  .90925 1.8281 144.2 22.1 60.4 121
2024 05 18 11  16 06 35.118   +15 37 56.81  .90955 1.8284 144.2 22.1 62.4 121
2024 05 18 12  16 06 31.468   +15 37 31.98  .90985 1.8287 144.2 22.1 64.4 121
2024 05 18 13  16 06 27.821   +15 37 07.10  .91016 1.8291 144.2 22.1 66.5 121
2024 05 18 14  16 06 24.176   +15 36 42.18  .91046 1.8294 144.2 22.1 68.6 121
2024 05 18 15  16 06 20.533   +15 36 17.22  .91077 1.8297 144.2 22.2 70.7 121
2024 05 18 16  16 06 16.892   +15 35 52.22  .91107 1.8301 144.2 22.2 72.9 121
2024 05 18 17  16 06 13.253   +15 35 27.18  .91138 1.8304 144.2 22.2 75.1 121
2024 05 18 18  16 06 09.616   +15 35 02.09  .91168 1.8307 144.3 22.2 77.3 121
2024 05 18 19  16 06 05.981   +15 34 36.97  .91199 1.8311 144.3 22.2 79.5 121
2024 05 18 20  16 06 02.348   +15 34 11.80  .91229 1.8314 144.3 22.2 81.8 121
2024 05 18 21  16 05 58.718   +15 33 46.59  .91260 1.8317 144.3 22.2 84.1 121
2024 05 18 22  16 05 55.089   +15 33 21.34  .91290 1.8321 144.3 22.2 86.5 121
2024 05 18 23  16 05 51.463   +15 32 56.05  .91321 1.8324 144.3 22.2 88.9 121